COSMOS 2317 (GLONASS)

Satellite information

Favourite Embed

Satellite Type and Status

PAYLOADIN ORBIT

Key statistics

Satellite COSMOS 2317 (GLONASS) at a glance.

Uptime

10942

Days in orbit

Revolutions

≈ 2.1

Per day

Orbit

MEO

Medium Earth Orbit

Inclination

65.5

Latest

Satellite identification and parameters

Extended collection of information and parameters for COSMOS 2317 (GLONASS).

Object identification

Identified? True

Debris? False

Object name: COSMOS 2317 (GLONASS)

International designator: 1995-037B

Object number (NORAD): 23621

Object ID (CCSDS): 23621

Country: COMMONWEALTH OF INDEPENDENT STATES (CIS)

Current information (Y/N): Y

RCS size: LARGE

Orbital parameters

Period: 675.733 minutes

Inclination: 65.4796 deg

SMA: 25508.038 km

Apoapsis: 19154.636 km

Periapsis: 19105.171 km

RAAN: 214.104 deg

Eccentricy: 0.0009696

Argument of periapsis: 174.4163 deg

Mean anomaly: 182.7776 deg

Mean motion: 2.13101826 rev/day

Mean motion (dot): 0.00000112 rev/day2

B* drag term: 0.0 1/REarth

Two-line elements (TLE)

Creation date: July 7, 2025, 6:34 p.m.

Reference frame: TEME

Reference center: EARTH

Epoch: July 7, 2025, 12:19 p.m. UTC

TLE line 0: 0 COSMOS 2317 (GLONASS)

TLE line 1: 1 23621U 95037B 25188.51363528 .00000112 00000-0 00000-0 0 9999

TLE line 2: 2 23621 65.4796 214.1040 0009696 174.4163 182.7776 2.13101826232909

Live tracking on map

Real-time ground track for satellite COSMOS 2317 (GLONASS).

In-orbit conjunctions

There are no conjunctions computed for COSMOS 2317 (GLONASS), at the moment. Check back to stay up to date, as we update our databases every day.

Go to all conjunctions

Associated space launch

GLONASS navigation satellites

COSMOS 2317 (GLONASS) was lifted into orbit during the mission ‘Proton | Uragan 66 to 68’, on board a Proton space rocket.

The launch took place on July 24, 1995, 3:52 p.m. from 200/39 (200L).

For more information about the launch, click the button.

Launch to space Proton | Uragan 66 to 68
Proton | Uragan 66 to 68

Agency: N/A

Status: Launch Successful

Launch date: July 24, 1995, 3:52 p.m. UTC

Rocket: Proton

Launch pad: 200/39 (200L)

Location: Baikonur Cosmodrome, Republic of Kazakhstan

...

Latest news about this satellite

There are no fresh news available about this satellite. Check back as we update our databases every day.


Newsletter sign-up

Weekly statistics, charts and insights to help you stay on top of the space industry.